Flag for U.S.A. Weather past 2 weeks in West Palm Beach, Florida, U.S.A.

Now
85 °F

Partly sunny.


Feels Like: 93 °F
Forecast: 75 / 88 °F
Wind: 5 mph from North

Location: Palm Beach International Airport

Current Time: Jul 31, 2015 at 10:17:04 AM

Latest Report: Jul 31, 2015 at 9:53 AM


Visibility: 10 mi

Pressure: 30.05 "Hg

Humidity: 72%

Dew point: 75 °F

Location of West Palm BeachLocation

Historic Weather in West Palm Beach — Graph

°F

West Palm Beach temperature yesterday

Maximum temperature yesterday: 91 °F (at 1:53 PM)
Minimum temperature yesterday: 78 °F (at 12:53 AM)
Average temperature yesterday: 83 °F

Past Weeks' High & Low Weather Summary

 TemperatureHumidityPressure
High94 °F (Jul 28, 3:53 PM)97% (Jul 28, 6:53 AM)30.10 "Hg (Jul 28, 6:53 AM)
Low74 °F (Jul 17, 6:53 AM)44% (Jul 28, 3:53 PM)29.88 "Hg (Jul 26, 4:53 AM)
Average82 °F76%30.01 "Hg
* Reported Jul 16 8:53 AM — Jul 31 8:53 AM, West Palm Beach, Weather by CustomWeather, © 2015

Note: Actual official high and low records may vary slightly from our data, if they occured in-between our weather recording intervals... More about our weather records

Advertising

West Palm Beach weather history for previous 24 hours

 ConditionsComfort  
Time TempWeatherWind HumidityBarometerVisibility
8:53 AM
Fri, Jul 31
83 °FPartly sunny.7 mph77%30.04 "Hg10 mi
7:53 AM79 °FBroken clouds.5 mph84%30.03 "Hg10 mi
6:53 AM78 °FPartly cloudy.3 mph84%30.01 "Hg10 mi
5:53 AM78 °FPassing clouds.6 mph87%30.01 "Hg10 mi
4:53 AM78 °FPassing clouds.3 mph87%30.01 "Hg10 mi
3:53 AM79 °FPassing clouds.No wind82%30.00 "Hg10 mi
2:53 AM78 °FPassing clouds.3 mph84%30.00 "Hg10 mi
1:53 AM80 °FPassing clouds.6 mph79%30.01 "Hg10 mi
12:53 AM81 °FPassing clouds.3 mph74%30.02 "Hg10 mi
11:53 PM
Thu, Jul 30
80 °FPassing clouds.6 mph74%30.04 "Hg10 mi
10:53 PM81 °FPartly cloudy.No wind67%30.04 "Hg10 mi
9:53 PM80 °FPartly cloudy.No wind69%30.02 "Hg10 mi
8:53 PM80 °FBroken clouds.5 mph67%30.01 "Hg10 mi
7:53 PM80 °FBroken clouds.9 mph67%30.00 "Hg10 mi
6:53 PM88 °FBroken clouds.7 mph54%29.98 "Hg10 mi
5:53 PM89 °FBroken clouds.9 mph52%29.98 "Hg10 mi
4:53 PM90 °FBroken clouds.10 mph45%29.96 "Hg10 mi
3:53 PM90 °FBroken clouds.15 mph48%29.97 "Hg10 mi
2:53 PM90 °FThunderstorms. Broken clouds.12 mph50%29.99 "Hg10 mi
1:53 PM91 °FThunderstorms. Broken clouds.13 mph54%30.01 "Hg10 mi
12:53 PM90 °FBroken clouds.12 mph61%30.02 "Hg10 mi
11:53 AM88 °FBroken clouds.15 mph63%30.03 "Hg10 mi
10:53 AM84 °FBroken clouds.13 mph72%30.04 "Hg10 mi
Weather by CustomWeather, © 2015

See weather overviewHow to use our weather pages